Location: Charlotte
(35.2270°N, 80.8430°W)
Time: 16:34:56
(UTC-04:00)

Daily predictions for brighter satellites

Satellite Brightness Start Highest point End
(mag) Time Altitude Azimuth Time Altitude Azimuth Time Altitude Azimuth
H-2A R/B 4.0 19:27:13 10° WSW 19:31:56 54° S 20:04:25 10° ESE
USA 229 DEB 3.9 20:27:47 10° S 20:34:15 48° ESE 20:40:50 10° NE
USA 229 3.9 20:27:55 10° S 20:34:22 48° ESE 20:40:55 10° NE
Cosmos 1655 Rocket 4.4 20:29:33 10° N 20:35:38 45° E 20:41:37 10° SSE
Cosmos 2279 Rocket 4.2 20:31:01 10° SSE 20:37:01 52° E 20:43:02 10° NNE
Cosmos 2195 Rocket 4.5 20:31:01 10° N 20:37:07 67° E 20:43:15 10° SSE
Cosmos 1862 4.1 20:33:28 10° NNE 20:37:11 34° E 20:40:54 10° SE
Cosmos 2322 Rocket 3.1 20:33:34 10° SW 20:39:02 55° WNW 20:44:34 10° NNE
ATLAS CENTAUR R/B 3.9 20:36:23 10° WNW 20:39:09 26° SW 20:44:55 10° S
Cosmos 1408 2.6 20:37:19 10° N 20:40:57 62° E 20:44:32 10° SSE
HJ-1C 3.9 20:41:11 10° S 20:44:35 64° W 20:48:01 10° NNW
Cosmos 1627 Rocket 4.5 20:38:34 10° N 20:44:45 76° E 20:50:51 10° S
Cosmos 2360 Rocket 2.2 20:39:49 10° S 20:45:21 61° ESE 20:50:56 10° NNE
Cosmos 1825 2.1 20:41:40 10° N 20:45:27 70° E 20:49:13 10° SSE
FALCON 9 R/B 0.2 20:42:17 10° W 20:45:31 78° S 20:47:35 11° E
H-2A R/B 3.0 20:48:52 10° S 20:52:43 71° W 20:56:34 10° NNW
ATLAS 5 CENTAUR R/B 2.7 20:48:03 10° NNW 20:54:01 54° NE 21:00:01 12° SE
COSMOS 2428 3.4 20:49:56 10° SSE 20:54:48 30° ESE 20:59:42 10° NE
Resurs 01 Rocket 1.7 20:53:52 10° S 20:58:19 81° W 21:02:47 10° NNW
Helios 1A 3.5 20:58:29 11° SE 21:02:23 43° ENE 21:06:25 10° N
USA 267 3.9 20:56:08 10° NE 21:02:33 61° NW 21:08:58 10° WSW
Cosmos 1939 Rocket 3.9 21:00:53 15° ESE 21:03:28 28° ENE 21:06:53 10° NNE
Atlas Centaur 2 2.7 21:00:53 10° WSW 21:06:47 58° S 21:12:51 15° ESE
CZ-4B DEB 3.7 21:06:08 20° ESE 21:07:28 28° ENE 21:10:07 10° NNE
Cosmos 2322 3.7 21:02:15 10° SSW 21:07:57 82° ESE 21:13:41 10° NNE
Okean 1-7 4.2 21:08:36 17° SE 21:10:39 24° E 21:14:12 10° NE
SL-16 R/B 4.3 21:06:28 10° WSW 21:11:24 30° WNW 21:16:21 10° N
YAOGAN 6 4.2 21:11:36 17° E 21:12:29 19° ENE 21:15:04 10° NNE
Cosmos 1733 Rocket 3.2 21:09:11 10° N 21:13:38 78° W 21:18:04 10° S
Sich 1 Rocket 4.1 21:10:23 10° N 21:14:40 42° E 21:17:37 19° SE
OAO 3 Rocket 3.6 21:16:43 10° W 21:21:26 51° SSW 21:24:12 23° SE
Cosmos 1862 Rocket 4.5 21:17:57 10° SSW 21:22:17 52° W 21:26:41 10° N
Meteor 2-10 Rocket 3.7 21:18:51 10° S 21:24:40 87° E 21:30:28 10° N
Cosmos 2237 Rocket 3.8 21:26:55 16° E 21:26:55 16° E 21:29:21 10° ENE
Spot 2 Rocket 4.5 21:21:45 10° S 21:26:38 47° W 21:31:32 10° NNW
Cosmos 968 Rocket 3.4 21:21:40 10° NNW 21:26:54 72° ENE 21:30:31 20° SSE
CZ-4C R/B 4.5 21:22:20 10° N 21:27:15 19° NE 21:31:55 11° E
Cosmos 1844 Rocket 3.8 21:22:49 10° N 21:27:34 28° ENE 21:29:47 21° E
Cosmos 2333 4.3 21:24:46 10° S 21:30:19 57° ESE 21:35:58 10° NNE
Cosmos 2333 Rocket 3.0 21:32:00 25° SE 21:33:46 29° ESE 21:38:39 10° NE
Cosmos 2278 Rocket 4.1 21:31:09 10° NNE 21:33:47 13° NE 21:35:33 12° ENE
Okean 2 Rocket 4.1 21:30:43 10° NNE 21:34:38 28° ENE 21:35:20 27° E
USA 234 4.3 21:30:18 16° E 21:34:46 35° NNE 21:40:32 10° NNW
Lacrosse 4 Rocket 4.2 21:34:50 10° WNW 21:37:23 15° WSW 21:39:57 10° SW
Helios 1B rocket 3.2 21:35:28 10° N 21:39:29 54° WNW 21:43:28 10° SSW
Cosmos 1703 Rocket 3.5 21:38:54 10° S 21:43:20 87° W 21:47:46 10° N
Envisat 3.2 21:42:56 16° S 21:46:56 71° WSW 21:52:01 10° NNW
Cosmos 2219 Rocket 2.3 21:42:14 12° S 21:47:05 49° ESE 21:52:29 10° NNE
USA 186 4.3 21:48:55 10° SW 21:50:53 17° W 21:52:57 10° NW
Meteor 1-29 4.3 21:48:41 10° N 21:51:56 39° WNW 21:55:09 10° SW
SPOT 5 3.7 21:57:52 31° ENE 21:58:01 31° ENE 22:02:03 10° N
Gbstr 26 Del rocket 4.4 21:51:31 10° SSW 21:58:46 63° SE 22:06:47 10° NE
SeaSat 1 4.2 21:58:47 17° ENE 21:59:30 17° NE 22:02:39 10° NNE
SEDSat Delta rocket 4.0 21:55:51 10° W 22:00:34 41° SSW 22:01:32 38° SSE
NOSS 0 Rocket 4.1 22:00:21 36° SSE 22:02:18 47° ESE 22:08:09 10° NE
ERS-1 Rocket 2.9 22:01:58 46° SSE 22:03:28 75° ENE 22:08:30 10° N
H-2A R/B 3.3 22:06:42 23° ENE 22:06:42 23° ENE 22:10:15 10° NNE
Cosmos 1867 4.5 22:03:19 10° NW 22:08:27 43° WSW 22:10:58 26° SSW
Sakura Rocket 4.2 22:05:26 10° WSW 22:07:34 25° SW 22:07:34 25° SW
Milstar 3 3.7 22:03:19 10° W 22:10:04 30° SSW 22:11:48 27° S
Cosmos 2263 Rocket 4.2 22:06:23 10° NW 22:10:37 23° W 22:14:51 10° SSW
Cosmos 2266 Rocket 4.2 22:06:04 10° NNW 22:12:22 70° W 22:16:21 24° S
Cosmos 1570 Rocket 3.8 22:11:35 42° S 22:13:21 75° ESE 22:18:38 10° NNE
Cosmos 2221 Rocket 4.5 22:14:06 18° SSW 22:17:03 47° W 22:21:21 10° N
NOSS 3-1 (C) 3.5 22:11:32 10° SW 22:17:11 74° WNW 22:23:29 10° NNE
MetOp-B 4.1 22:17:11 58° SE 22:18:03 70° ENE 22:23:23 10° N
Cosmos 1782 2.8 22:18:24 77° NNW 22:18:24 77° NNW 22:22:10 10° N
YAOGAN 11 4.1 22:20:58 65° NE 22:20:58 65° NE 22:24:56 10° N
H-2A R/B 4.2 22:27:25 16° NE 22:27:25 16° NE 22:28:59 10° NNE
Cosmos 2208 Rocket 3.9 22:25:07 49° SSW 22:26:38 89° E 22:31:58 10° NNE
Terra 3.7 22:32:31 19° NE 22:32:31 19° NE 22:34:48 10° NNE
Meteor 1-27 Rocket 3.8 22:33:10 57° ENE 22:33:10 57° ENE 22:38:12 10° NNE
NOSS 3-1 (A) 3.4 22:29:21 10° SW 22:35:00 75° WNW 22:41:20 10° NNE
ATLAS 2AS CENTAUR R/B 4.4 22:39:31 21° ENE 22:39:31 21° ENE 22:42:36 10° NE
ATLAS 5 CENTAUR R/B 4.2 22:33:32 10° WNW 22:38:29 25° WSW 22:41:36 18° SSW
COSMOS 2428 4.4 22:33:54 10° SW 22:38:56 32° WNW 22:44:02 10° N
ARGOS 3.0 22:41:15 86° SE 22:41:21 88° ENE 22:46:45 10° NNW
NOAA 11 4.3 22:41:21 59° SSW 22:42:08 67° WSW 22:47:36 10° NNW
Cosmos 1244 Rocket 4.4 22:36:00 10° N 22:42:18 88° W 22:43:18 66° S
Cosmos 1980 3.6 22:42:14 73° SSW 22:42:48 87° WNW 22:48:29 10° NNE
Cosmos 1553 Rocket 3.8 22:46:05 75° ESE 22:46:20 76° E 22:52:32 10° N
Cosmos 1606 4.3 22:48:19 33° NW 22:48:19 33° NW 22:50:54 10° N
SL-08 R/B 4.5 22:41:34 10° N 22:47:23 62° ENE 22:47:23 62° ENE
Cosmos 1844 3.6 22:44:10 10° NNW 22:49:48 76° WSW 22:49:48 76° WSW
SL-16 R/B 3.9 22:53:21 20° NE 22:53:21 20° NE 22:55:15 10° NE
SPOT 1/Viking Rocket 3.7 22:55:00 69° N 22:55:00 69° N 22:59:34 10° NNW
Atlas Centaur 2 3.2 22:49:31 10° W 22:55:28 46° SSW 22:55:28 46° SSW
MOS 1-B Rocket 4.0 23:02:57 63° WSW 23:03:10 63° WSW 23:08:44 10° NNW
Meteor 1-11 Rocket 3.9 22:59:19 10° N 23:04:02 65° N 23:04:02 65° N
Cosmos 2237 Rocket 2.7 23:08:38 52° W 23:09:21 56° WNW 23:14:58 10° NNE
Meteor 2-11 Rocket 4.5 23:12:02 73° N 23:12:02 73° N 23:17:30 10° N
Cosmos 1844 Rocket 3.8 23:06:25 10° NW 23:11:25 35° WSW 23:11:29 35° WSW
CZ-4C R/B 2.8 23:09:26 10° NNW 23:16:49 81° ENE 23:17:07 79° E
USA 234 3.3 23:17:39 67° WSW 23:17:39 67° WSW 23:23:57 10° NW
Cosmos 2333 Rocket 3.7 23:13:47 15° WSW 23:17:51 34° WNW 23:23:06 10° N
Cosmos 2278 Rocket 2.6 23:12:52 10° NNW 23:17:25 58° NNW 23:17:25 58° NNW
S3M 4.2 23:18:41 61° W 23:18:50 61° W 23:25:00 10° N
Cosmos 2219 Rocket 4.4 23:27:10 10° WSW 23:31:17 21° WNW 23:35:28 10° N
SeaSat 1 3.9 23:38:34 34° NW 23:38:34 34° NW 23:41:26 10° NNW
H-2A R/B 3.8 23:47:20 26° WNW 23:47:20 26° WNW 23:50:06 10° NNW
